Simultaneous Nadir Overpasses (SNOs) Predictions

Prediction of SNOs between AQUA and METOP-A Satellite Orbit:

Table of predicted SNOs for the next 14.0 days since TLE Epoch: 2/13/2015
Index Date (AQUA) Time (AQUA) Lat,Lon (AQUA) SZA (AQUA ) Date (METOP-A) Time (METOP-A) Lat,Lon (METOP-A) SZA (METOP-A ) Distance(km) Time Diff (sec)
1 02/13/2015 14:42:13 -73.78, 133.85 92.79 02/13/2015 14:41:34 -73.81, 133.85 92.74 3.77 39
2 02/13/2015 15:31:42 73.85, -58.68 87.29 02/13/2015 15:32:13 73.87, -58.67 87.30 2.22 31
3 02/16/2015 10:16:27 -73.79,-159.71 93.74 02/16/2015 10:15:58 -73.81,-159.77 93.71 2.88 29
4 02/16/2015 11:05:56 73.86, 7.75 86.33 02/16/2015 11:06:37 73.86, 7.69 86.33 1.81 41
5 02/19/2015 05:50:41 -73.82, -93.34 94.69 02/19/2015 05:50:21 -73.84, -93.29 94.67 2.46 20
6 02/19/2015 06:40:10 73.90, 74.11 85.39 02/19/2015 06:41:00 73.89, 74.16 85.37 2.33 50
7 02/22/2015 00:35:20 73.46, 166.25 83.92 02/22/2015 00:34:10 73.43, 164.84 83.97 44.99 70
8 02/22/2015 01:24:53 -73.84, -26.94 95.68 02/22/2015 01:24:44 -73.82, -26.94 95.71 3.08 9
9 02/22/2015 02:14:22 73.93, 140.51 84.40 02/22/2015 02:15:22 73.91, 140.62 84.37 3.74 60
10 02/24/2015 20:09:38 73.78,-127.97 83.23 02/24/2015 20:08:26 73.80,-127.92 83.26 2.63 72
11 02/24/2015 20:59:05 -73.85, 39.52 96.72 02/24/2015 20:59:07 -73.84, 39.50 96.73 1.29 2




NCC Satellite Simultaneous Nadir Overpasses (SNOs) Prediction Service
